User: anonymous   Login
Location: Bretagne
(43.8474°N, 0.4650°W)
Time: 13:21:24
(UTC+00:00)
Language:

Cosmos 1633 Rocket - Orbit

View from above orbital plane
View from above orbital plane
View from above satellite
View from above satellite

Ground track
Ground track

The orbit is defined by the following mean orbital elements,

1 15593U          26073.31196999 +.00000000 +00000-0 +55383-4 0 00009
2 15593  82.5392 152.6205 0009611 288.3867  71.6305 14.86822197    04
Epoch (UTC): 14 March 2026 07:29:14
Eccentricity: 0.0009611
inclination: 82.5392°
perigee height: 601 km
apogee height: 615 km
right ascension of ascending node: 152.6205°
argument of perigee: 288.3867°
revolutions per day: 14.86822197
mean anomaly at epoch: 71.6305°

The dashed part of the orbit path shows where the satellite is in the earth's shadow,  

DLR